Weather History for Bryce Canyon, UT

Change the Weather History Date:

Tuesday, January 17, 2012

  Actual Average Record
Temperature  
Mean Temperature 12 °F -  
Max Temperature 32 °F 35 °F 50 °F (1971)
Min Temperature -7 °F 12 °F -16 °F (2007)
Degree Days  
Heating Degree Days 52    
Moisture  
Dew Point 5 °F    
Average Humidity 71    
Maximum Humidity 96    
Minimum Humidity 38    
Precipitation  
Precipitation 0.00 in - - ()
Sea Level Pressure  
Sea Level Pressure 30.26 in    
Wind  
Wind Speed 5 mph (SSW)    
Max Wind Speed 12 mph    
Max Gust Speed -    
Visibility 10 miles    
Events      
Averages and records for this station are not official NWS values.
T = Trace of Precipitation, MM = Missing Value Source: NWS Daily Summary

Daily Weather History Graph

Daily Weather History Graph

Search for Another Location

Airport:

Trip Planner

Search our weather history database for the weather conditions in past years. The results will help you decide how hot, cold, wet, or windy it might be!

Date:

Astronomy

Jan. 17, 2012 Rise Set
Actual Time 7:42 AM MST 5:35 PM MST
Civil Twilight 7:13 AM MST 6:03 PM MST
Nautical Twilight 6:41 AM MST 6:36 PM MST
Astronomical Twilight 6:09 AM MST 7:07 PM MST
Moon 2:06 AM MST (1/17) 12:31 PM MST (1/17)
Length of Visible Light 10h 50m
Length of Day
9h 53m
Waning Crescent, 34% of the Moon is Illuminated
Jan 17
Waning Crescent
Jan 23
New
Jan 30
First Quarter
Feb 7
Full
Feb 14
Last Quarter

Hourly Weather History & Observations

Time (MST) Temp. Windchill Dew Point Humidity Pressure Visibility Wind Dir Wind Speed Gust Speed Precip Events Conditions
12:53 AM 6.1 °F -2.8 °F -0.0 °F 76% 30.11 in 10.0 mi NNW 4.6 mph - N/A   Clear
1:53 AM 3.9 °F -8.2 °F 3.0 °F 96% 30.14 in 10.0 mi North 6.9 mph - N/A   Clear
2:53 AM 3.0 °F -6.4 °F 1.9 °F 95% 30.18 in 10.0 mi NW 4.6 mph - N/A   Clear
3:53 AM -0.0 °F -7.9 °F -2.0 °F 91% 30.19 in 10.0 mi WNW 3.5 mph - N/A   Clear
4:53 AM -2.9 °F -16.5 °F -4.0 °F 95% 30.24 in 10.0 mi West 6.9 mph - N/A   Clear
5:53 AM -4.0 °F -16.3 °F -5.1 °F 95% 30.28 in 10.0 mi West 5.8 mph - N/A   Clear
6:53 AM -4.0 °F - -6.0 °F 91% 30.32 in 10.0 mi Calm Calm - N/A   Clear
7:53 AM -7.1 °F -19.9 °F -9.0 °F 91% 30.39 in 10.0 mi WSW 5.8 mph - N/A   Clear
8:53 AM 6.1 °F - 3.0 °F 87% 30.34 in 10.0 mi Calm Calm - N/A   Clear
9:53 AM 15.1 °F - 9.0 °F 77% 30.32 in 10.0 mi Calm Calm - N/A   Clear
10:53 AM 23.0 °F - 9.0 °F 55% 30.28 in 10.0 mi Calm Calm - N/A   Clear
11:53 AM 27.0 °F 18.0 °F 5.0 °F 39% 30.25 in 10.0 mi SSE 9.2 mph - N/A   Clear
12:53 PM 28.9 °F 20.4 °F 7.0 °F 40% 30.21 in 10.0 mi SE 9.2 mph - N/A   Clear
1:53 PM 30.9 °F 23.5 °F 9.0 °F 40% 30.19 in 10.0 mi ESE 8.1 mph - N/A   Clear
2:53 PM 32.0 °F 25.6 °F 9.0 °F 38% 30.19 in 10.0 mi SSE 6.9 mph - N/A   Clear
3:53 PM 32.0 °F 23.0 °F 10.9 °F 42% 30.20 in 10.0 mi SE 11.5 mph - N/A   Clear
5:53 PM 26.1 °F 19.4 °F 14.0 °F 60% 30.29 in 10.0 mi South 5.8 mph - N/A   Clear
6:53 PM 25.0 °F 14.2 °F 5.0 °F 43% 30.31 in 10.0 mi SW 11.5 mph - N/A   Clear
7:53 PM 24.1 °F 15.2 °F 12.9 °F 62% 30.35 in 10.0 mi SW 8.1 mph - N/A   Clear
8:53 PM 16.0 °F - 10.0 °F 77% 30.34 in 10.0 mi Calm Calm - N/A   Clear
9:53 PM 15.1 °F - 9.0 °F 77% 30.30 in 10.0 mi Calm Calm - N/A   Clear
10:53 PM 12.9 °F 2.6 °F 8.1 °F 81% 30.26 in 10.0 mi ENE 6.9 mph - N/A   Clear
11:53 PM 15.1 °F 6.4 °F 9.0 °F 77% 30.23 in 10.0 mi ENE 5.8 mph - N/A   Clear